Volver al catálogo

BREEZE-M R/B

ActivoHEO
NORAD 28360·ROCKET BODY·🇷🇺 Russia

Lanzado Jun 16, 2004 desde Baikonur Cosmodrome

Loading…

Próximos Pases (próximas 24 horas)

TLE

ActualizadoSource: Space-Track

Época: Sep 13, 2026, 22:03 UTC

1 28360U 04022C   26256.91937361  .00000085  00000-0  00000-0 0  9990
2 28360  24.2573  75.9145 5976779 358.3386   0.3015  2.01472394163147

Sigue BREEZE-M R/B en tiempo real con AllMySat

Download on the App Store